157  
ASUS44 KMAF 250401  
RWRMAF  
MIDLAND AREA WEATHER ROUNDUP  
NATIONAL WEATHER SERVICE MIDLAND TX  
1100 PM CDT THU SEP 24 2020  
   
..IN SOUTHWEST TEXAS AND SOUTHEAST NEW MEXICO
 
 
 
CITY SKY/WX TMP DP RH WIND PRES REMARKS
 
ALPINE CLEAR 69 49 48 S5 30.16S  
ANDREWS FAIR 70 40 33 S8 30.04S  
ARTESIA CLEAR 75 43 31 SW12 30.02S  
BIG SPRING CLEAR 70 54 56 SE9 30.00S  
CARLSBAD CLEAR 74 44 34 S9 29.99S  
DRYDEN N/A 69 58 67 E3 30.03R  
FORT STOCKTON CLEAR 73 57 57 SE10 30.03R  
GUAD PASS CLEAR 71 43 36 NE16 30.17R  
HOBBS CLEAR 73 37 27 SE12 30.04S  
LAMESA NOT AVBL  
MARFA CLEAR 57 52 83 NW8 30.15R  
MIDLAND AIRPK CLEAR 76 47 35 S13 30.02S  
MIDLAND INTL CLEAR 71 44 37 S8 30.02R  
ODESSA CLEAR 73 43 33 SE10 30.04R  
PECOS CLEAR 77 54 44 SE9 29.98S  
PRESIDIO FAIR 78 47 33 N5 30.01R  
SEMINOLE CLEAR 73 40 30 S8 30.07S  
SNYDER CLEAR 73 55 54 S9 29.99S  
WINK CLEAR 75 53 46 SE8 30.00R  

   
..OTHER STATIONS IN TEXAS
 
 
 
CITY SKY/WX TMP DP RH WIND PRES REMARKS
 
ABILENE CLEAR 64 59 83 S8 29.97R  
AMARILLO CLEAR 70 38 31 S10 29.97S  
AUSTIN CLEAR 64 62 93 CALM 29.96R  
BROWNSVILLE CLEAR 77 73 87 E3 29.93R  
CORPUS CHRISTI CLEAR 72 66 81 E6 29.94R  
DALLAS FTW CLEAR 64 61 90 S6 29.94R  
DEL RIO CLEAR 76 65 68 CALM 29.94R  
EL PASO CLEAR 81 36 19 CALM 30.00R  
HOUSTON INT CLOUDY 72 66 81 N3 29.95R  
LUBBOCK CLEAR 75 41 29 S13 30.00R  
SAN ANGELO CLEAR 66 57 72 S8 29.98R  
SAN ANTONIO CLEAR 69 62 78 E6 29.97R  
WACO CLEAR 63 60 90 E5 29.96R  
WICHITA FALLS CLEAR 68 62 81 S9 29.86S  

   
..OTHER LOCATIONS IN NEW MEXICO
 
 
 
CITY SKY/WX TMP DP RH WIND PRES REMARKS
 
ALAMOGORDO CLEAR 72 36 26 E5 30.04R  
ALBUQUERQUE CLEAR 73 28 18 CALM 30.10R  
CANNON AFB NOT AVBL  
CLOVIS CLEAR 68 39 34 S10 30.04S  
HOLLOMAN AFB NOT AVBL  
ROSWELL CLEAR 77 39 25 SW10 30.00S  
RUIDOSO CLEAR 64 36 34 NW3 30.27  
SANTA FE CLEAR 62 25 24 E6 30.17R  
TRUTH OR CONSE CLEAR 77 31 18 SW6 30.07R  
TUCUMCARI CLEAR 71 39 31 SW7 29.97R  

 
 
 
CLICK HERE TO GO TO PREVIOUS BULLETINS.

The Nexlab TX Page
The Nexlab NM Page Main Text Page